Regional Weather Roundup
Issued by NWS Memphis, TN

Home | Current Version | Previous Version | Text Only | Print | Product List | Glossary On
Versions: 1 2 3 4 5 6 7 8 9 10 11 12 13 14 15 16 17 18 19 20 21 22 23 24 25 26 27 28 29 30 31 32 33 34 35 36 37 38 39 40 41 42 43 44 45 46 47 48 49 50
000
ASUS44 KMEG 290210
RWRMEG
MEMPHIS CWA HOURLY WEATHER ROUNDUP
NATIONAL WEATHER SERVICE MEMPHIS TN
900 PM CDT TUE MAR 28 2017

...WEST TENNESSEE...

CITY           SKY/WX    TMP DP  RH WIND       PRES   REMARKS
MEMPHIS INTL   CLEAR     70  55  59 NE12      29.96R
NWS MEMPHIS      N/A     67 N/A N/A MISG        N/A
JACKSON        CLEAR     64  55  72 NE9       30.00R
SOMERVILLE     CLEAR     66  55  68 CALM      29.97R
BOLIVAR        PTCLDY    63  55  77 CALM      29.98R
SAVANNAH       CLEAR     59  57  94 CALM      29.98R FOG
DYERSBURG      CLEAR     61  54  77 NE9       30.02R
PARIS          CLEAR     55  52  88 NE7       30.04R
HUNTINGDON     CLEAR     61  54  77 NE9       30.02R


...EASTERN ARKANSAS...

CITY           SKY/WX    TMP DP  RH WIND       PRES   REMARKS
JONESBORO      CLEAR     60  54  80 NE14      30.00R
WEST MEMPHIS   CLEAR     64  58  80 NE7       29.95R
BATESVILLE     PTCLDY    63  54  72 NE9       29.98S
NEWPORT        CLOUDY    62  57  83 NE17      29.98S
WALNUT RIDGE   CLEAR     59  52  77 NE12      30.02R
BLYTHEVILLE    CLEAR     59  57  93 NE12      30.01R
SEARCY         CLEAR     64  59  83 NE10      29.96S
STUTTGART      PTCLDY    68  54  60 NE12      29.92S
PINE BLUFF     CLEAR     71  62  73 NE8       29.89R
MONTICELLO     CLEAR     70  63  78 E3        29.88R


...NORTH MISSISSIPPI...

CITY           SKY/WX    TMP DP  RH WIND       PRES   REMARKS
TUPELO         CLEAR     71  57  61 NE6       29.95S
OXFORD         CLEAR     68  57  68 E7        29.96S
BATESVILLE     PTCLDY    69  60  73 CALM      29.94R
TUNICA         CLEAR     66  57  72 N7        29.94R
CORINTH        CLEAR     66  55  68 CALM      29.97R
GREENWOOD      CLEAR     71  65  81 CALM      29.91R
COLUMBUS       CLEAR     73  62  68 E8        29.93S
STARKVILLE     MOCLDY    72  63  73 CALM      29.95S
GOLDEN TRIANGL PTCLDY    72  61  68 E7        29.90R


...SOUTHEAST MISSOURI...

CITY           SKY/WX    TMP DP  RH WIND       PRES   REMARKS
KENNETT        PTCLDY    59  55  88 NE10      30.02R
MALDEN         CLEAR     57  52  82 NE6       30.06R
WEST PLAINS    MOCLDY    58  49  72 E8        30.02R
POPLAR BLUFF   MOCLDY    58  52  80 NE7       30.04R
CAPE GIRARDEAU CLOUDY    57  49  74 NE8       30.06R


...NORTHWEST ALABAMA...

CITY           SKY/WX    TMP DP  RH WIND       PRES   REMARKS
MUSCLE SHOALS  CLEAR     62  55  77 CALM      30.00R


...MIDDLE TENNESSEE...

CITY           SKY/WX    TMP DP  RH WIND       PRES   REMARKS
NASHVILLE      CLEAR     60  54  80 N9        30.05R
CLARKSVILLE    CLEAR     56  52  86 NE7       30.05R FOG
COLUMBIA       CLEAR     64  55  72 NE6       30.01R


...WESTERN KENTUCKY...

CITY           SKY/WX    TMP DP  RH WIND       PRES   REMARKS
PADUCAH        CLOUDY    59  51  75 NE7       30.05R
FORT CAMPBELL  CLEAR     55  55 100 NE7       30.05R


...CENTRAL ARKANSAS...

CITY           SKY/WX    TMP DP  RH WIND       PRES   REMARKS
LITTLE ROCK    MOCLDY    67  60  78 NE10      29.91S


SKY/WX REPORTED AS FAIR MEANS FEW OR NO CLOUDS BELOW
12 THOUSAND FEET.





USA.gov is the U.S. government's official web portal to all federal, state and local government web resources and services.